| time (UTC) | temp C | wind direction | speed KPH | gust KPH | rain 1hr cm | rain 24hr cm | rain mn cm | humidity % | barometer mb |
| 20260504034555 | 14 | 160 | 1.6 | 6.4 | 0.00 | 0.00 | 0.00 | 65 | 1005.2 |
| 20260504033043 | 15 | 188 | 1.6 | 4.8 | 0.00 | 0.00 | 0.00 | 63 | 1005.3 |
| 20260504031544 | 15 | 180 | 1.6 | 4.8 | 0.00 | 0.00 | 0.00 | 62 | 1005.5 |
| 20260504030048 | 16 | 203 | 1.6 | 11.3 | 0.00 | 0.00 | 0.00 | 59 | 1005.5 |
| 20260504024548 | 16 | 176 | 3.2 | 9.7 | 0.00 | 0.00 | 0.00 | 58 | 1005.6 |
| 20260504023048 | 16 | 0 | 3.2 | 12.9 | 0.00 | 0.00 | 0.00 | 57 | 1005.5 |
| 20260504021541 | 17 | 221 | 4.8 | 12.9 | 0.00 | 0.00 | 0.00 | 56 | 1005.5 |
| 20260504020044 | 17 | 242 | 3.2 | 16.1 | 0.00 | 0.00 | 0.00 | 55 | 1005.2 |
| 20260504014543 | 17 | 225 | 4.8 | 11.3 | 0.00 | 0.00 | 0.00 | 54 | 1005.0 |
| 20260504013101 | 18 | 237 | 4.8 | 11.3 | 0.00 | 0.00 | 0.00 | 52 | 1004.9 |
| 20260504011543 | 18 | 221 | 6.4 | 12.9 | 0.00 | 0.00 | 0.00 | 51 | 1004.8 |
| 20260504010048 | 18 | 219 | 8.0 | 16.1 | 0.00 | 0.00 | 0.00 | 50 | 1004.9 |
| 20260504004546 | 18 | 234 | 4.8 | 22.5 | 0.00 | 0.00 | 0.00 | 49 | 1004.9 |
| 20260504003048 | 19 | 268 | 8.0 | 24.1 | 0.00 | 0.00 | 0.00 | 48 | 1004.8 |
| 20260504001547 | 19 | 242 | 8.0 | 24.1 | 0.00 | 0.00 | 0.00 | 46 | 1004.8 |
| 20260504000041 | 20 | 277 | 9.7 | 25.7 | 0.00 | 0.00 | 0.00 | 45 | 1004.7 |
| 20260503234549 | 20 | 299 | 8.0 | 33.8 | 0.00 | 0.00 | 0.00 | 44 | 1004.8 |
| 20260503233040 | 20 | 263 | 11.3 | 27.4 | 0.00 | 0.00 | 0.00 | 43 | 1004.8 |
| 20260503231543 | 20 | 185 | 9.7 | 24.1 | 0.00 | 0.00 | 0.00 | 43 | 1004.8 |
| 20260503230044 | 20 | 244 | 4.8 | 20.9 | 0.00 | 0.00 | 0.00 | 43 | 1005.0 |
| 20260503224542 | 20 | 229 | 11.3 | 30.6 | 0.00 | 0.00 | 0.00 | 42 | 1005.2 |
| 20260503223044 | 20 | 166 | 11.3 | 30.6 | 0.00 | 0.00 | 0.00 | 43 | 1005.3 |
| 20260503221558 | 20 | 244 | 8.0 | 32.2 | 0.00 | 0.00 | 0.00 | 43 | 1005.6 |
| 20260503220043 | 19 | 241 | 11.3 | 29.0 | 0.00 | 0.00 | 0.00 | 42 | 1005.7 |
| 20260503214545 | 19 | 213 | 16.1 | 38.6 | 0.00 | 0.00 | 0.00 | 42 | 1006.0 |
| 20260503213046 | 19 | 290 | 17.7 | 33.8 | 0.00 | 0.00 | 0.00 | 42 | 1006.4 |
| 20260503211544 | 19 | 209 | 9.7 | 30.6 | 0.00 | 0.00 | 0.00 | 41 | 1006.5 |
| 20260503210042 | 18 | 232 | 11.3 | 29.0 | 0.00 | 0.00 | 0.00 | 41 | 1006.7 |
| 20260503204606 | 19 | 171 | 11.3 | 30.6 | 0.00 | 0.00 | 0.00 | 40 | 1006.9 |
| 20260503203045 | 18 | 254 | 12.9 | 38.6 | 0.00 | 0.00 | 0.00 | 41 | 1007.2 |
| 20260503201549 | 18 | 184 | 12.9 | 40.2 | 0.00 | 0.00 | 0.00 | 42 | 1007.4 |
| 20260503200046 | 18 | 263 | 14.5 | 40.2 | 0.00 | 0.00 | 0.00 | 45 | 1007.7 |
| 20260503194546 | 17 | 234 | 14.5 | 32.2 | 0.00 | 0.00 | 0.00 | 48 | 1007.9 |
| 20260503193047 | 16 | 194 | 12.9 | 35.4 | 0.00 | 0.00 | 0.00 | 52 | 1008.0 |
| 20260503191604 | 15 | 203 | 14.5 | 41.8 | 0.00 | 0.00 | 0.00 | 55 | 1008.4 |
| 20260503190042 | 15 | 136 | 9.7 | 30.6 | 0.00 | 0.00 | 0.00 | 56 | 1008.5 |
| 20260503184544 | 13 | 157 | 12.9 | 29.0 | 0.00 | 0.00 | 0.00 | 59 | 1008.9 |
| 20260503183042 | 13 | 178 | 11.3 | 29.0 | 0.00 | 0.00 | 0.00 | 62 | 1009.3 |
| 20260503181550 | 12 | 163 | 12.9 | 29.0 | 0.00 | 0.00 | 0.00 | 63 | 1009.7 |
| 20260503180049 | 12 | 198 | 9.7 | 25.7 | 0.00 | 0.00 | 0.00 | 65 | 1010.4 |
| 20260503174548 | 12 | 193 | 11.3 | 24.1 | 0.00 | 0.00 | 0.00 | 66 | 1011.1 |
| 20260503173045 | 11 | 240 | 11.3 | 27.4 | 0.00 | 0.00 | 0.00 | 68 | 1011.7 |
| 20260503171545 | 11 | 200 | 11.3 | 30.6 | 0.00 | 0.00 | 0.00 | 70 | 1011.8 |
| 20260503081543 | 7 | 246 | 4.8 | 12.9 | 0.00 | 0.00 | 0.00 | 56 | 1013.8 |
| 20260503071549 | 7 | 233 | 4.8 | 12.9 | 0.00 | 0.00 | 0.00 | 55 | 1014.0 |
| 20260503054604 | 7 | 187 | 3.2 | 8.0 | 0.00 | 0.00 | 0.00 | 56 | 1014.7 |
| 20260503053042 | 7 | 212 | 3.2 | 8.0 | 0.00 | 0.00 | 0.00 | 55 | 1014.9 |
| 20260503051542 | 8 | 192 | 3.2 | 6.4 | 0.00 | 0.00 | 0.00 | 55 | 1015.0 |
| 20260503050049 | 8 | 242 | 1.6 | 6.4 | 0.00 | 0.00 | 0.00 | 55 | 1015.0 |
| 20260503044548 | 8 | 242 | 1.6 | 6.4 | 0.00 | 0.00 | 0.00 | 55 | 1015.1 |
| 20260503043053 | 8 | 225 | 1.6 | 6.4 | 0.00 | 0.00 | 0.00 | 55 | 1015.1 |
| 20260503041544 | 8 | 247 | 1.6 | 6.4 | 0.00 | 0.00 | 0.00 | 55 | 1015.2 |
| 20260503040046 | 8 | 235 | 1.6 | 4.8 | 0.00 | 0.00 | 0.00 | 55 | 1015.2 |